Probability
2 1 0 0 0 0 0 0 0 0 0 0 0 0 0 0 0 0 0 0 0 0 0 0 0 0 0 0 0 0 0 0 0 0 0 0 0 0 0 0 0 0 0
2 1 0 0 0 0 0 0 0 0 0 0 0 0 0 0 0 0 0 0 0 0 0 0 0 0 0 0 0 0 0 0 0 0 0 0 0 0 0 0 0 0 0
2 1 0 0 0 0 0 0 0 0 0 0 0 0 0 0 0 0 0 0 0 0 0 0 0 0 0 0 0 0 0 0 0 0 0 0 0 0 0 0 0 0 0
2 1 0 0 0 0 0 0 0 0 0 0 0 0 0 0 0 0 0 0 0 0 0 0 0 0 0 0 0 0 0 0 0 0 0 0 0 0 0 0 0 0 0
3 2 1 0 0 0 0 0 0 0 0 0 0 0 0 0 0 0 0 0 0 0 0 0 0 0 0 0 0 0 0 0 0 0 0 0 0 0 0 0 0 0 0
2 2 1 0 0 0 0 0 0 0 0 0 0 0 0 0 0 0 0 0 0 0 0 0 0 0 0 0 0 0 0 0 0 0 0 0 0 0 0 0 0 0 0
3 3 2 1 0 0 0 0 0 0 0 0 0 0 0 0 0 0 0 0 0 0 0 0 0 0 0 0 0 0 0 0 0 0 0 0 0 0 0 0 0 0 0
6 6 4 1 0 0 0 0 0 0 0 0 0 0 0 0 0 0 0 0 0 0 0 0 0 0 0 0 0 0 0 0 0 0 0 0 0 0 0 0 0 0 0
9 7 4 2 1 0 0 0 0 0 0 0 0 0 0 0 0 0 0 0 0 0 0 0 0 0 0 0 0 0 0 0 0 0 0 0 0 0 0 0 0 0 0
8 6 4 4 2 1 0 0 0 0 0 0 0 0 0 0 0 0 0 0 0 0 0 0 0 0 0 0 0 0 0 0 0 0 0 0 0 0 0 0 0 0 0
5 4 3 4 3 1 0 0 0 0 0 0 0 0 0 0 0 0 0 0 0 0 0 0 0 0 0 0 0 0 0 0 0 0 0 0 0 0 0 0 0 0 0
4 2 1 1 1 1 0 0 0 0 0 0 0 0 0 0 0 0 0 0 0 0 0 0 0 0 0 0 0 0 0 0 0 0 0 0 0 0 0 0 0 0 0
3 1 0 0 0 0 0 0 0 0 0 0 0 0 0 0 0 0 0 0 0 0 0 0 0 0 0 0 0 0 0 0 0 0 0 0 0 0 0 0 0 0 0
2 1 0 0 0 0 0 0 0 0 0 0 0 0 0 0 0 0 0 0 0 0 0 0 0 0 0 0 0 0 0 0 0 0 0 0 0 0 0 0 0 0 0
1 0 0 0 0 0 0 0 0 0 0 0 0 0 0 0 0 0 0 0 0 0 0 0 0 0 0 0 0 0 0 0 0 0 0 0 0 0 0 0 0 0 0
0 0 0 0 0 0 0 0 0 0 0 0 0 0 0 0 0 0 0 0 0 0 0 0 0 0 0 0 0 0 0 0 0 0 0 0 0 0 0 0 0 0 0
0 0 0 0 0 0 0 0 0 0 0 0 0 0 0 0 0 0 0 0 0 0 0 0 0 0 0 0 0 0 0 0 0 0 0 0 0 0 0 0 0 0 0
0 0 0 0 0 0 0 0 0 0 0 0 0 0 0 0 0 0 0 0 0 0 0 0 0 0 0 0 0 0 0 0 0 0 0 0 0 0 0 0 0 0 0
0 0 0 0 0 0 0 0 0 0 0 0 0 0 0 0 0 0 0 0 0 0 0 0 0 0 0 0 0 0 0 0 0 0 0 0 0 0 0 0 0 0 0
0 0 0 0 0 0 0 0 0 0 0 0 0 0 0 0 0 0 0 0 0 0 0 0 0 0 0 0 0 0 0 0 0 0 0 0 0 0 0 0 0 0 0
0 0 0 0 0 0 0 0 0 0 0 0 0 0 0 0 0 0 0 0 0 0 0 0 0 0 0 0 0 0 0 0 0 0 0 0 0 0 0 0 0 0 0
0 0 0 0 0 0 0 0 0 0 0 0 0 0 0 0 0 0 0 0 0 0 0 0 0 0 0 0 0 0 0 0 0 0 0 0 0 0 0 0 0 0 0
0 0 0 0 0 0 0 0 0 0 0 0 0 0 0 0 0 0 0 0 0 0 0 0 0 0 0 0 0 0 0 0 0 0 0 0 0 0 0 0 0 0 0
0 0 0 0 0 0 0 0 0 0 0 0 0 0 0 0 0 0 0 0 0 0 0 0 0 0 0 0 0 0 0 0 0 0 0 0 0 0 0 0 0 0 0
0 0 0 0 0 0 0 0 0 0 0 0 0 0 0 0 0 0 0 0 0 0 0 0 0 0 0 0 0 0 0 0 0 0 0 0 0 0 0 0 0 0 0
0 0 0 0 0 0 0 0 0 0 0 0 0 0 0 0 0 0 0 0 0 0 0 0 0 0 0 0 0 0 0 0 0 0 0 0 0 0 0 0 0 0 0
Wind_Speed
4 3 3 2 3 2 2 2 2 2 2 2 2 3 3 3 2 1 1 2 2 2 3 4 4 4 4 4 4 4 5 5 5 5 5 4 4 4 3 3 2 2 1
4 4 4 3 3 3 3 3 3 2 2 2 2 3 4 3 3 2 1 1 2 2 2 3 4 4 4 4 4 4 4 5 5 4 4 4 3 3 3 2 2 2 1
6 5 4 4 4 3 3 2 2 2 2 1 2 2 3 3 3 3 2 1 1 1 1 2 3 4 4 4 4 4 4 4 4 4 4 3 3 3 3 3 2 2 3
8 6 5 5 4 3 3 3 2 2 2 1 1 1 2 3 3 3 2 2 1 1 1 2 2 2 3 3 4 4 4 4 3 3 3 3 2 3 3 3 3 3 4
9 6 6 5 4 4 4 4 2 2 2 2 2 2 1 2 3 3 3 3 3 2 1 2 2 2 2 3 3 4 4 4 3 3 3 3 3 3 3 3 4 4 5
8 7 5 6 4 4 4 3 3 2 2 3 2 1 0 1 2 3 4 3 3 3 3 2 1 1 3 3 3 4 4 4 4 4 3 3 3 3 3 4 4 5 5
8 7 6 5 5 5 5 5 3 3 2 2 3 1 1 1 2 3 3 3 4 4 3 3 2 2 1 3 3 4 5 5 4 4 3 3 3 3 3 4 4 5 5
8 8 7 5 5 4 5 5 4 3 2 3 3 2 1 2 2 2 2 3 4 3 4 5 4 3 3 2 2 4 4 4 5 5 4 3 2 2 3 3 4 5 5
6 6 7 6 5 5 5 5 5 5 3 2 2 4 4 4 2 2 2 2 3 3 4 3 5 5 4 3 3 4 5 5 6 6 5 4 4 3 3 3 4 4 4
5 5 5 6 6 5 5 5 5 3 4 3 2 1 2 3 3 1 2 1 2 4 4 4 5 5 5 4 5 6 7 6 7 7 6 5 4 4 3 3 4 4 4
3 4 5 5 5 5 6 6 5 5 4 4 4 3 2 1 1 2 2 2 1 2 3 4 4 4 5 5 5 7 9 8 8 8 7 7 6 4 4 4 4 4 4
2 3 4 4 4 5 6 7 6 7 5 5 4 3 3 3 3 3 3 2 2 2 2 3 4 4 4 5 7 10 11 10 9 9 8 7 6 5 5 4 4 4 4
1 2 3 3 3 4 4 5 5 5 5 5 5 4 3 3 3 3 3 2 2 2 2 2 3 3 3 4 5 9 10 11 10 10 8 7 6 5 5 6 5 5 4
1 1 2 2 3 3 4 4 4 4 4 5 5 4 3 3 3 4 4 3 2 1 2 3 1 2 2 3 4 7 6 9 10 10 9 8 7 6 6 6 6 5 5
1 1 2 2 2 2 3 4 3 3 3 4 4 4 3 3 4 4 3 4 4 3 3 2 2 1 1 2 3 3 4 7 8 9 9 9 8 7 7 6 6 5 4
2 2 2 2 2 2 2 2 2 2 3 2 2 3 3 2 3 3 3 3 3 3 3 2 1 1 1 1 1 2 3 5 6 7 8 9 8 8 8 7 6 5 5
4 4 3 3 2 2 2 2 2 2 3 2 2 3 3 3 3 3 3 3 3 3 2 1 0 1 1 1 1 1 0 1 2 5 6 7 7 8 8 8 8 7 6
6 5 4 3 3 2 2 2 2 2 3 3 3 3 3 3 3 2 2 3 2 3 2 1 0 1 1 1 1 1 1 1 1 3 5 6 6 7 8 8 8 8 7
7 6 5 5 4 3 3 2 2 2 2 2 2 3 3 3 3 2 2 2 2 2 2 2 1 1 1 1 2 2 2 2 1 1 2 3 4 5 6 7 7 8 8
7 7 6 5 5 4 4 4 3 2 2 2 2 2 2 3 3 3 3 3 3 3 2 2 1 1 1 1 1 2 2 2 2 2 2 2 1 2 3 4 5 6 7
8 7 7 6 5 4 4 4 3 3 3 3 3 2 2 3 4 4 3 3 4 3 3 2 2 1 1 1 1 1 1 1 2 2 2 2 2 2 1 2 2 3 4
8 8 8 7 7 6 8 7 4 3 3 3 3 3 3 3 4 5 5 6 5 4 3 2 2 1 1 1 1 1 1 1 1 2 2 2 2 2 2 2 2 2 2
8 8 8 8 7 8 10 8 7 4 4 4 3 3 3 4 4 4 5 6 5 5 5 4 3 2 1 1 2 1 1 1 1 2 2 2 2 2 3 4 7 6 4
6 6 7 8 7 9 12 9 8 5 5 5 4 4 4 3 3 4 4 5 5 5 4 3 3 2 1 2 2 2 2 2 2 2 2 2 2 2 3 4 9 9 8
6 6 6 8 8 9 12 10 8 4 5 5 5 5 4 3 4 5 5 5 5 4 6 8 7 6 5 5 3 3 2 3 2 2 3 2 1 1 2 3 6 10 10
5 6 7 7 8 8 12 11 8 4 4 4 4 5 7 6 6 6 4 4 5 3 3 5 6 7 6 7 7 3 2 2 2 1 2 2 1 1 2 2 4 5 6
Wind_Direction
208 212 218 216 219 212 215 232 246 265 278 274 247 221 214 204 203 209 285 263 208 192 176 163 156 156 150 149 150 147 144 142 141 140 134 133 133 135 135 136 143 144 142
207 211 221 220 217 209 208 215 231 245 263 259 246 216 207 199 201 202 227 283 255 207 192 183 167 163 161 160 159 156 154 153 150 152 151 152 154 159 167 172 189 209 226
207 207 214 222 220 200 199 211 229 221 236 232 231 207 193 194 194 202 209 233 293 268 233 213 194 182 178 175 170 164 162 159 161 170 174 177 181 187 204 218 235 247 253
206 203 209 222 214 188 182 195 200 197 211 203 201 202 190 190 201 205 211 220 233 266 270 245 211 202 206 202 194 184 176 172 175 182 185 186 194 209 226 240 252 260 262
206 201 209 219 200 185 187 198 182 180 190 194 190 190 194 194 202 209 215 219 222 228 238 261 241 228 229 222 213 204 198 196 194 199 203 208 215 227 238 249 255 260 265
203 199 206 211 197 188 190 185 177 176 181 176 170 147 193 217 209 214 217 215 217 222 221 229 232 248 243 237 230 222 215 210 209 218 224 224 219 229 244 257 262 266 270
193 195 204 201 193 194 195 182 164 164 161 137 112 75 334 280 231 231 221 217 221 217 211 215 209 210 249 250 239 236 232 227 222 224 237 236 227 239 256 267 275 280 280
193 195 194 191 188 189 186 179 162 155 160 156 140 132 254 311 273 228 220 223 228 211 214 217 208 209 212 222 240 246 249 245 237 234 241 242 234 246 259 271 280 288 291
197 194 187 182 181 184 188 186 176 164 168 178 167 153 165 215 259 290 242 230 225 216 221 213 213 214 211 211 225 243 246 245 245 243 241 239 238 244 259 273 284 294 297
190 187 183 179 179 179 180 187 180 173 162 174 186 184 172 160 164 245 298 264 234 224 224 221 219 217 212 211 219 224 232 235 240 242 244 244 242 248 255 267 282 291 293
184 175 181 178 181 182 181 182 178 180 180 177 174 163 156 131 143 164 236 281 293 252 230 221 219 221 215 212 215 223 225 227 230 238 244 247 247 249 253 262 274 286 294
171 170 177 182 187 189 188 189 186 187 189 183 179 173 167 166 182 178 197 222 250 276 264 234 221 223 219 214 223 224 222 222 223 229 236 243 249 255 260 264 272 280 288
184 184 175 180 182 188 188 182 183 190 186 183 185 191 190 188 169 168 172 190 221 278 297 273 237 226 227 215 226 226 225 220 220 223 225 227 235 246 258 266 271 275 282
174 175 163 162 170 174 173 170 173 183 180 187 195 193 195 199 185 179 170 162 179 258 282 272 284 239 238 222 228 224 228 223 219 220 220 219 225 231 244 255 265 275 285
59 108 141 146 154 160 161 158 166 174 175 187 195 199 201 206 199 194 177 166 164 191 243 262 277 310 263 232 228 206 215 224 219 218 219 219 221 225 230 238 248 256 265
42 76 98 114 125 124 142 145 152 163 173 186 191 194 196 195 190 180 176 172 173 175 209 237 257 297 320 321 209 199 216 226 223 220 220 220 221 224 228 230 232 231 232
36 41 59 86 97 100 105 129 155 168 175 185 189 191 192 178 174 172 162 162 170 166 192 230 255 318 358 14 29 47 140 200 223 227 225 223 223 226 229 230 230 227 228
29 36 42 55 68 73 80 98 119 126 143 164 174 170 178 163 157 153 155 165 167 166 169 194 327 3 18 20 30 44 50 138 212 236 229 226 228 229 231 230 229 228 229
33 34 40 45 49 55 64 67 82 94 117 141 149 151 149 141 138 136 144 150 148 146 145 151 141 41 33 29 38 35 39 29 355 287 244 238 236 235 233 232 231 231 233
31 29 33 37 35 40 45 45 53 72 77 78 90 120 133 147 156 154 151 148 135 126 126 127 121 73 51 31 56 42 28 24 13 7 11 8 328 267 254 247 240 236 237
32 30 33 31 25 30 32 35 39 60 70 74 68 74 101 140 158 155 145 142 135 126 123 116 106 79 54 51 52 35 46 16 24 17 11 17 22 29 360 320 280 258 247
26 30 29 26 26 26 29 42 50 57 66 71 69 63 73 83 105 107 126 140 143 140 139 128 120 120 121 108 89 62 60 55 26 8 25 14 21 27 10 5 354 340 317
26 29 26 23 22 16 27 39 48 60 64 57 58 64 71 73 75 83 88 90 92 106 129 141 137 151 154 165 135 94 78 78 60 352 19 24 14 24 18 28 31 33 26
25 26 24 20 21 19 24 37 53 59 64 59 55 60 68 61 69 96 99 87 74 62 78 92 113 126 141 154 148 133 124 93 60 25 23 53 18 23 20 28 35 42 41
26 24 22 23 23 14 22 36 53 57 62 53 47 47 55 61 70 97 103 100 84 66 73 83 83 79 85 92 104 98 85 78 55 19 14 54 23 16 32 31 31 38 42
24 24 28 26 25 19 23 36 49 56 59 51 42 37 41 55 73 92 98 107 102 84 80 70 61 52 55 58 59 71 103 101 93 42 5 35 27 32 67 36 29 25 33